Theta_e
299 299 299 299 299 300 300 301 302 303 304 304 305 305 305 305 305 306 306 306 307 307 308 308 308 309 308 308 308 308 307 307 308 307 307 307 307 307 307 307 308 307 307 309 310 310 310 308 308 308 311 309 309 313 310 307 314 321 316 311 310 310 309 308 309 309 311 311 312 313 310 309 309 308 307 307 310 312 311 309 310 309 307 306 306 306 305 305
300 300 301 301 301 301 302 302 303 304 304 305 305 305 305 305 306 306 306 307 307 307 308 309 310 310 310 309 308 308 307 308 308 307 307 307 307 308 308 307 307 307 308 309 309 310 310 309 307 307 312 311 309 311 310 307 311 316 317 313 310 311 308 307 308 308 309 311 312 312 309 308 309 307 308 309 309 310 309 308 311 313 312 308 306 305 305 304
301 301 301 302 302 302 303 304 304 304 304 305 305 305 306 305 306 306 307 307 307 308 308 309 310 310 310 310 308 308 307 308 309 307 307 308 308 308 308 308 307 307 308 309 309 309 310 310 306 308 313 311 309 309 309 310 310 310 315 315 309 308 308 306 307 308 309 310 311 311 309 309 309 307 309 310 309 310 310 309 309 311 313 312 306 304 305 304
302 302 302 302 303 303 303 304 304 304 304 305 305 306 306 306 306 306 307 307 307 308 308 309 310 310 310 309 309 307 307 312 310 307 308 308 308 309 308 308 307 307 308 309 310 308 309 308 306 315 317 314 315 311 308 310 310 308 311 314 308 307 309 307 307 309 309 308 310 310 310 309 308 309 310 310 311 310 312 313 310 309 312 313 308 304 304 304
302 302 302 303 303 303 303 304 304 305 305 306 306 306 306 306 306 307 307 307 308 308 309 310 309 310 310 309 309 306 310 317 311 307 309 308 308 309 308 308 308 308 309 309 310 309 310 307 311 323 320 315 319 315 308 307 309 308 307 308 308 308 309 307 307 308 307 307 309 309 310 308 307 310 311 313 312 309 311 314 314 313 310 311 309 305 303 303
303 303 303 303 303 304 304 305 305 306 306 306 307 306 307 307 307 307 307 307 308 309 309 310 310 311 310 309 309 308 313 315 309 307 309 308 309 308 309 309 309 310 309 310 309 308 310 309 313 321 316 311 312 311 307 305 307 309 306 307 308 308 307 306 307 308 308 309 309 309 309 309 309 308 310 313 311 312 312 309 309 309 306 306 306 304 303 302
304 304 304 304 304 305 305 306 306 306 307 307 307 307 307 307 307 307 308 308 309 309 310 311 312 312 310 309 309 310 313 310 307 309 308 308 309 308 310 310 310 311 310 310 308 308 310 310 310 314 315 312 307 306 306 305 308 310 307 307 308 307 307 307 308 308 310 310 308 309 308 309 312 309 308 309 312 316 311 303 304 305 304 304 303 303 302 300
305 305 305 306 306 306 306 306 307 307 307 307 307 307 307 307 308 307 308 309 309 310 311 312 312 312 311 311 311 310 311 309 307 309 308 309 309 309 310 310 311 311 311 310 308 309 311 312 312 315 314 310 307 306 306 307 309 310 308 307 307 307 307 308 309 309 310 309 307 309 309 310 313 309 307 309 314 315 306 302 304 303 304 305 303 302 301 300
305 306 306 306 306 306 307 306 307 307 307 307 307 307 308 308 308 308 309 309 310 310 309 310 310 310 311 311 313 311 309 308 308 308 309 309 309 309 310 311 312 312 311 310 310 311 313 314 314 315 312 308 310 309 309 311 309 308 309 307 307 307 307 308 308 309 309 307 308 310 309 309 310 307 308 310 313 311 305 305 305 304 306 308 305 301 300 300
305 306 306 306 306 306 307 307 307 307 308 308 308 308 308 308 308 309 309 310 309 309 310 310 309 309 310 310 311 311 309 309 309 309 309 309 309 309 309 311 312 312 311 310 310 310 313 313 308 309 310 310 312 310 310 312 309 308 309 309 308 308 307 308 308 308 308 307 308 311 308 308 308 306 310 314 314 310 308 309 308 307 308 309 305 300 299 300
306 306 307 307 307 307 307 308 308 308 308 308 308 308 308 308 309 310 311 311 310 310 311 310 310 310 308 308 309 310 309 308 309 309 309 309 310 310 310 311 312 312 310 310 309 308 309 308 306 310 311 309 309 309 308 309 308 308 309 309 309 309 307 307 308 307 308 306 308 312 308 308 308 308 313 316 314 310 309 310 309 308 308 308 305 300 299 300
307 307 308 308 308 308 308 308 308 308 309 309 309 309 309 309 309 310 311 311 311 311 311 310 311 310 309 308 308 309 308 308 310 309 309 310 310 311 311 312 311 312 311 310 309 308 309 307 309 316 313 307 309 310 307 307 310 310 310 310 309 310 308 307 308 308 308 307 309 311 310 313 312 311 315 315 313 310 310 310 309 310 308 307 306 301 299 299
308 308 308 309 308 308 308 308 308 309 309 309 309 309 309 309 309 310 310 310 311 311 311 311 311 310 311 310 308 309 308 309 310 310 310 310 310 311 311 312 311 312 311 310 309 308 309 308 308 312 312 312 311 309 306 309 314 311 311 312 310 311 309 308 308 308 308 308 310 310 313 321 318 313 314 313 312 309 310 310 309 311 309 307 307 303 300 299
308 308 308 308 308 308 308 308 309 309 309 310 310 310 309 310 310 311 311 312 311 312 312 313 313 311 311 310 308 309 309 310 311 311 311 310 311 310 310 311 310 311 310 309 309 308 308 308 308 309 311 312 310 308 308 313 318 313 311 314 315 314 312 313 310 308 308 308 311 308 311 321 318 313 312 312 312 309 310 312 311 312 310 307 306 304 301 299
308 308 308 308 308 308 308 308 309 308 310 310 311 310 310 311 311 311 312 313 312 313 314 314 314 313 313 310 308 309 310 311 311 310 311 311 310 310 310 311 310 311 310 310 310 309 309 308 310 311 311 312 311 312 315 318 319 316 316 317 318 317 313 315 312 309 310 308 310 311 314 320 317 313 312 311 312 309 311 313 311 312 310 307 306 304 302 300
308 308 308 308 309 308 307 308 309 309 309 310 311 311 310 311 311 311 312 311 312 312 313 312 311 312 314 311 308 310 309 309 310 310 312 311 311 310 310 311 311 311 310 310 310 309 309 309 311 312 313 317 314 316 322 323 322 320 321 318 317 316 311 313 313 313 315 310 309 311 315 319 317 314 311 310 312 309 311 313 312 312 310 308 306 304 302 301
308 308 308 309 308 306 307 309 309 310 310 310 311 310 311 311 311 311 312 312 312 311 311 310 309 312 313 309 308 310 308 308 309 312 312 311 311 311 310 311 311 310 310 310 310 309 309 311 314 311 313 315 313 320 329 327 325 323 322 317 313 314 311 313 315 314 315 313 312 312 313 314 316 316 311 310 312 310 312 314 312 311 310 309 308 305 302 302
308 308 308 308 307 306 308 310 310 310 310 310 311 311 311 311 312 312 312 313 314 314 313 310 310 315 314 310 308 309 308 308 309 311 312 311 311 311 311 310 309 310 314 314 311 311 310 311 313 312 315 314 313 322 327 320 320 319 318 316 312 312 312 314 317 314 312 312 314 314 313 314 315 315 311 309 311 311 313 314 311 310 310 310 308 306 303 303
306 307 307 307 307 308 309 310 310 311 311 310 310 311 310 310 311 312 311 311 314 315 314 311 311 314 313 309 307 308 308 308 310 310 311 311 311 311 310 309 310 311 318 317 313 313 313 314 315 316 317 315 313 316 318 316 317 316 317 318 315 315 316 317 318 315 310 310 314 316 317 317 316 316 312 309 310 311 312 313 311 311 311 310 309 307 304 303
306 306 306 307 307 309 310 308 309 311 313 313 311 310 313 317 316 314 312 311 311 311 311 312 312 312 311 309 308 309 309 310 310 310 311 310 312 312 310 312 314 312 315 315 312 313 313 316 317 315 315 315 313 312 314 315 314 315 320 321 317 316 317 317 315 314 310 310 316 317 317 317 316 315 312 308 308 310 312 311 311 312 312 310 310 308 305 303
306 306 306 307 307 309 310 308 309 310 313 315 314 313 318 324 320 314 314 313 309 308 309 309 309 310 309 308 308 308 309 310 310 309 310 310 311 313 312 316 319 314 315 318 318 318 314 314 316 313 314 313 310 310 314 315 315 317 319 319 317 314 315 314 312 314 310 308 317 317 314 315 313 311 311 309 308 309 310 312 313 311 311 310 310 309 306 303
307 307 307 306 307 308 309 309 309 310 312 314 314 313 314 316 314 311 314 314 309 307 308 307 308 310 308 308 309 308 308 311 311 309 310 311 312 313 312 313 315 312 316 324 325 319 314 315 315 312 313 311 308 310 317 320 318 319 319 318 317 313 315 316 313 314 312 310 318 318 314 314 311 310 310 308 308 309 310 311 314 312 309 310 310 308 305 302
307 307 307 306 307 307 308 308 308 309 311 312 313 312 310 311 311 310 312 315 311 308 309 310 310 311 310 310 309 309 310 310 312 310 309 312 314 316 315 313 314 313 313 321 319 314 315 315 313 312 311 310 310 312 319 323 318 316 318 316 316 313 312 317 317 315 314 310 313 315 312 313 314 316 316 310 307 310 312 312 312 311 309 309 308 307 303 302
307 307 307 307 306 307 308 307 308 309 309 312 312 311 311 312 311 310 314 317 314 309 309 309 308 310 310 309 308 311 312 310 312 311 308 312 314 316 317 316 321 319 312 314 314 314 315 310 310 313 315 315 313 312 316 323 319 318 319 313 312 313 309 314 316 313 313 310 309 312 316 321 322 322 322 315 307 309 312 311 310 311 311 309 307 306 304 302
307 307 307 307 306 307 308 307 309 308 308 311 310 310 311 310 308 309 319 327 317 308 310 308 307 309 307 308 309 311 314 312 310 310 308 309 312 316 316 316 321 319 313 314 315 314 312 308 309 315 320 319 315 312 312 317 322 323 320 311 308 310 309 312 313 312 319 318 309 310 318 327 325 321 323 318 311 310 311 310 312 313 313 311 310 309 305 302
307 307 308 307 307 306 307 309 309 307 309 308 307 310 309 308 309 308 321 336 320 307 311 312 309 310 308 309 309 310 317 316 308 307 309 307 308 313 317 317 318 316 314 315 315 314 313 312 312 314 318 317 313 314 310 313 325 322 315 311 309 309 308 311 313 313 320 317 308 311 317 320 321 321 322 317 313 313 312 312 314 315 315 313 313 311 306 303
308 307 307 307 307 306 309 312 309 310 314 309 307 309 307 308 310 309 322 333 318 307 310 313 310 310 310 308 308 313 316 313 310 308 308 308 307 311 317 319 319 315 311 316 318 314 314 316 315 312 315 316 314 314 309 311 323 317 311 312 310 308 307 310 313 312 313 313 313 317 316 314 319 322 317 312 312 315 316 316 315 315 315 313 313 312 307 304
308 308 307 307 307 306 310 311 308 311 315 310 307 307 308 308 307 315 332 324 312 310 309 311 311 309 311 308 308 316 314 310 313 310 307 307 306 312 319 316 316 313 308 319 322 311 310 315 314 312 315 318 314 312 309 310 317 314 310 309 307 308 310 311 314 315 313 313 318 322 315 312 320 322 316 311 311 317 318 317 317 316 315 313 314 314 309 305
308 308 307 306 306 307 308 310 308 308 309 307 307 308 309 307 307 327 340 317 308 311 309 310 311 310 314 314 312 315 312 310 312 309 308 307 305 311 316 312 316 316 310 319 325 312 309 311 309 311 314 315 313 313 312 311 314 311 308 309 308 308 311 311 313 318 319 318 322 323 314 312 320 323 320 314 312 319 321 318 319 317 314 313 314 313 311 306
308 308 308 307 307 307 307 308 307 307 306 306 308 308 307 311 324 339 330 310 307 310 309 310 309 311 316 319 318 314 311 312 312 311 311 307 306 310 309 308 317 322 316 320 321 313 311 310 307 309 310 310 311 313 312 311 311 308 309 312 311 309 312 315 315 318 322 325 326 322 313 312 318 322 323 317 316 319 319 319 320 318 315 315 314 313 311 306
307 307 308 308 308 309 309 307 306 307 306 306 307 307 310 322 335 331 313 306 310 312 312 310 309 314 317 315 313 312 315 317 313 315 317 309 307 310 310 309 316 328 329 324 320 314 313 313 309 310 310 308 310 311 310 312 310 308 313 315 313 313 317 321 324 323 322 321 324 321 312 310 316 322 323 320 320 318 316 317 318 318 318 317 316 313 310 306
307 307 307 308 308 310 309 307 307 307 306 308 309 314 325 329 323 316 312 311 311 311 310 307 310 316 315 312 311 309 314 317 312 313 315 313 310 306 308 309 310 322 326 319 319 318 315 314 311 311 308 306 313 318 317 320 317 313 318 320 321 324 320 321 327 326 320 317 317 314 311 311 316 321 320 320 321 319 317 318 318 316 316 317 317 313 309 305
307 307 307 307 307 308 307 306 307 307 308 309 313 327 340 330 313 307 314 315 307 307 308 306 312 315 311 314 313 308 310 311 311 310 308 313 315 308 306 305 304 312 315 312 316 320 321 318 313 312 309 307 314 319 317 320 318 315 318 321 325 326 321 322 324 318 317 319 314 308 310 316 317 319 321 320 319 320 320 318 316 315 313 314 314 310 307 305
308 309 308 308 308 307 307 307 306 307 308 310 325 344 333 315 309 306 313 316 307 308 309 306 314 316 312 313 310 308 310 308 308 312 313 315 318 317 314 309 306 309 313 313 311 313 319 318 313 311 309 309 312 311 310 313 313 312 313 316 321 320 318 321 322 319 317 318 314 308 311 317 318 320 321 318 317 318 317 314 310 310 309 307 307 306 305 304
310 309 308 309 308 308 308 307 307 308 308 313 332 343 322 310 311 312 316 314 308 310 308 307 316 319 316 319 313 306 307 306 309 313 317 315 313 314 313 309 307 306 311 314 308 309 316 314 314 312 307 307 310 307 307 311 312 311 310 316 318 316 317 317 317 317 313 313 318 317 317 316 316 318 317 314 316 316 314 313 312 314 312 307 308 307 305 304
310 309 309 308 307 309 310 309 309 308 309 321 331 325 316 312 310 313 314 307 305 308 307 311 320 317 317 322 319 311 305 305 310 312 312 310 307 308 309 307 305 304 310 313 308 309 315 315 317 314 308 306 307 306 307 309 311 313 314 317 311 308 316 318 314 313 311 314 319 317 318 318 315 317 318 315 316 315 316 317 316 317 314 310 311 309 306 304
309 309 308 308 307 308 309 310 310 308 311 325 329 314 309 308 304 309 310 303 303 306 310 316 312 308 313 316 316 317 311 305 309 313 311 307 306 307 308 307 303 302 305 307 307 307 309 316 319 314 310 308 303 305 308 307 308 313 317 314 307 307 314 315 313 316 317 320 318 314 318 318 314 319 322 318 317 317 318 318 317 317 315 313 312 310 307 305
310 310 309 309 308 307 309 310 309 310 314 323 324 312 307 307 304 304 305 303 304 307 314 316 307 304 312 313 311 312 312 310 312 314 310 308 307 305 306 307 303 303 303 303 307 306 304 315 321 311 309 310 305 306 311 308 306 309 311 308 308 314 317 313 313 316 316 317 318 316 316 315 316 324 322 315 317 318 317 317 317 317 315 314 313 311 308 304
312 316 314 309 308 307 309 308 306 312 323 325 322 312 307 308 305 302 302 303 305 307 310 311 306 305 309 310 309 308 308 310 310 311 309 307 308 304 304 305 303 305 305 303 307 307 303 311 318 313 308 308 308 309 313 313 308 309 309 308 311 314 314 312 312 314 315 317 318 318 318 318 320 327 323 313 314 316 316 316 314 314 313 313 313 311 307 304
311 320 315 307 308 308 307 306 308 317 324 319 316 311 306 308 306 301 300 302 305 305 305 308 308 308 309 308 307 306 309 311 308 310 310 306 308 305 304 304 303 304 305 303 304 306 305 307 315 318 311 309 312 312 315 318 315 313 313 312 313 311 310 310 310 312 316 319 319 318 319 318 316 319 317 312 313 316 316 315 312 312 312 312 313 311 306 304
316 329 317 307 309 308 308 312 312 315 319 313 311 309 305 306 306 303 301 301 305 303 302 307 309 309 311 309 306 305 311 314 311 311 310 307 307 305 303 303 304 303 304 305 305 306 307 307 311 317 314 316 319 310 306 311 313 316 316 314 316 315 313 313 312 312 312 314 318 317 317 317 314 316 315 312 316 318 316 314 312 311 311 311 313 310 306 304
323 332 315 307 309 307 311 318 311 310 317 313 307 306 306 306 306 305 304 301 303 304 303 306 308 310 312 310 308 309 311 314 312 310 308 307 306 306 304 301 302 302 302 305 305 303 305 306 309 315 312 311 311 303 301 304 306 309 309 309 313 315 316 316 317 316 312 310 312 312 315 316 315 320 319 316 319 319 315 313 311 310 309 311 312 308 305 304
324 319 309 307 308 310 318 322 313 311 312 305 301 302 304 307 306 304 304 305 304 305 306 307 307 308 308 308 309 309 308 310 310 308 308 309 307 305 302 300 301 301 302 304 304 301 303 305 308 315 315 310 308 304 303 302 303 305 307 307 310 314 316 317 317 315 313 313 312 312 316 317 315 321 321 316 319 318 314 312 310 309 310 312 312 307 304 303
319 309 310 310 305 314 329 326 318 314 308 304 305 305 304 304 306 307 308 309 307 305 309 311 308 305 306 307 310 308 306 306 307 306 306 308 306 300 298 300 300 302 303 304 304 301 303 307 308 311 314 314 316 314 311 307 306 309 311 309 309 311 311 311 309 308 311 314 313 315 319 317 312 320 319 314 315 314 310 309 308 309 311 312 311 307 304 302
316 309 315 315 304 309 318 317 320 321 313 310 309 307 306 305 304 306 307 307 304 304 308 309 306 306 306 307 309 308 306 306 305 305 304 305 305 300 298 299 299 303 302 299 300 301 304 308 307 309 312 312 313 315 313 310 309 310 311 308 307 309 309 310 309 309 312 313 311 314 320 314 308 313 312 309 311 309 307 307 307 309 313 313 311 308 304 302
318 314 322 327 314 309 308 307 316 323 317 317 312 306 308 308 305 303 305 306 304 303 306 305 303 307 308 309 314 314 311 307 304 305 308 309 308 303 299 298 300 301 299 296 297 301 305 308 307 311 316 314 312 312 309 307 307 308 308 307 308 308 307 310 312 313 314 313 311 313 314 311 309 309 308 307 308 306 306 306 306 308 313 313 311 308 305 302
319 311 312 323 320 318 319 313 317 320 313 315 311 305 309 311 305 304 304 304 305 305 307 306 305 307 308 310 314 316 313 309 306 306 308 309 307 301 297 298 299 297 296 297 298 301 307 310 308 309 313 311 311 310 306 304 305 306 306 308 310 309 306 308 310 312 312 311 311 313 313 312 310 308 307 307 306 305 306 306 305 307 311 311 310 307 305 301
315 307 303 307 309 317 320 313 314 318 313 313 311 305 311 314 308 308 306 303 304 305 306 308 308 309 311 310 310 312 313 311 310 310 307 306 306 303 300 300 298 294 295 299 298 300 305 308 307 307 311 311 309 309 306 303 304 305 305 306 307 307 307 308 307 309 310 309 310 311 312 310 308 307 306 306 306 305 305 305 305 307 310 310 309 307 306 303
309 308 302 302 306 311 309 304 310 319 316 315 312 308 313 315 310 309 305 303 308 306 305 309 310 311 314 312 308 311 314 310 307 309 308 306 306 306 305 305 300 294 296 301 300 298 302 311 310 306 309 310 308 308 306 304 307 308 306 306 306 306 307 306 305 306 307 308 308 307 307 306 305 305 305 304 304 304 304 305 307 310 312 311 310 309 308 306
308 308 307 311 313 310 308 307 312 320 316 312 311 308 312 316 312 309 306 305 308 307 304 308 312 313 316 313 308 309 312 309 304 305 306 306 308 310 310 307 304 298 298 302 301 297 299 310 311 305 307 311 311 312 310 307 308 308 305 306 306 305 305 304 303 303 304 306 306 304 305 306 304 304 305 305 306 307 307 309 310 312 313 312 310 310 309 307
303 303 308 324 320 308 310 312 312 319 318 314 313 308 308 314 312 309 308 306 308 310 308 309 313 312 310 309 311 313 313 311 307 305 305 305 307 308 305 303 304 304 302 301 301 299 299 306 310 306 306 312 313 313 313 308 305 306 309 313 312 310 313 312 306 304 306 309 308 305 307 309 306 307 309 308 309 310 311 311 311 312 313 312 310 309 309 307
304 300 304 323 322 307 310 315 314 317 314 310 311 308 308 313 310 306 307 308 307 308 306 309 313 311 310 311 313 312 309 306 303 300 300 300 300 301 301 302 304 308 309 304 301 301 300 304 308 305 307 316 314 309 309 306 306 311 318 325 323 317 318 317 311 308 307 307 310 311 311 309 307 308 308 308 308 309 310 311 311 312 312 310 309 308 308 307
Wind_Speed
5 5 5 5 5 5 6 6 7 7 6 5 4 4 4 5 6 7 8 8 9 10 9 9 9 10 10 10 10 7 5 7 19 28 23 18 20 15 15 13 9 7 5 5 7 6 8 10 9 10 9 6 5 4 6 6 5 5 4 5 4 3 4 6 7 6 5 7 7 5 2 8 8 1 1 3 7 4 3 3 3 5 5 5 8 10 7 7
7 7 7 7 7 7 7 6 6 6 5 4 4 4 4 5 6 7 8 9 9 10 9 8 9 9 9 9 9 6 2 4 16 22 20 22 21 13 12 11 7 5 4 5 10 9 7 6 7 11 8 4 4 5 5 4 5 5 3 5 2 4 2 3 8 6 6 9 7 5 3 5 7 3 2 3 2 3 4 3 5 5 7 7 8 7 3 7
8 8 7 7 7 7 6 5 5 5 4 4 4 4 4 5 6 7 8 9 9 9 8 6 8 10 11 8 6 5 4 2 11 15 21 25 20 13 10 7 5 2 3 5 8 9 7 4 8 11 6 4 4 5 5 4 4 3 4 5 0 3 2 3 8 6 5 10 9 6 2 3 2 1 2 4 2 3 1 2 2 3 7 7 8 6 3 8
8 8 7 7 7 6 6 5 4 4 4 4 3 4 4 5 6 7 8 8 8 8 7 5 6 10 15 12 3 4 4 4 7 12 21 24 20 15 8 4 3 2 4 6 7 7 7 7 11 10 6 5 5 4 6 4 2 3 3 5 3 4 5 4 6 7 6 8 9 6 5 4 1 1 3 5 4 3 3 5 4 5 7 6 9 6 5 9
7 7 6 6 6 5 4 4 4 4 4 3 3 4 4 6 6 7 7 7 8 7 7 6 6 6 17 18 2 6 3 4 7 16 22 23 22 15 7 4 3 3 5 6 6 8 9 5 9 8 6 5 6 4 4 5 3 4 3 4 4 4 6 3 5 8 7 7 8 7 7 3 1 2 3 6 5 2 4 5 7 7 7 7 8 6 6 10
6 6 5 5 4 4 4 4 4 4 3 3 3 4 4 6 6 7 7 7 8 8 7 7 6 2 13 21 12 8 6 3 8 17 21 22 22 13 6 7 6 6 5 6 8 11 10 7 8 6 4 4 6 5 2 6 4 6 3 4 4 5 7 5 5 7 7 8 7 6 5 2 2 1 2 5 4 6 6 7 8 8 8 8 7 5 7 9
6 5 5 5 5 5 5 5 4 3 3 2 3 3 5 6 6 7 7 8 8 8 8 5 4 3 6 17 21 15 9 2 11 17 20 21 19 10 7 9 7 5 3 10 13 9 8 10 9 5 5 5 5 5 5 6 7 8 5 3 5 6 8 6 6 6 7 8 5 5 5 3 4 4 2 2 5 7 8 8 7 6 6 5 4 3 7 8
7 7 7 6 6 5 4 4 3 2 1 2 3 5 6 5 6 7 7 9 10 11 13 11 8 5 7 6 11 11 7 6 15 18 17 18 17 9 7 9 8 8 10 15 16 10 8 9 7 4 5 5 3 4 7 10 9 7 6 4 5 5 6 7 7 8 8 6 5 7 6 4 5 4 2 4 7 7 7 6 2 4 2 3 3 4 6 8
7 7 6 6 5 4 3 2 1 1 2 4 5 5 5 5 6 7 8 11 14 19 23 25 20 10 6 2 3 7 7 13 17 17 16 16 15 9 8 11 10 12 15 12 10 10 5 3 2 4 6 4 5 3 3 7 4 2 6 5 6 6 5 8 7 8 7 4 5 7 4 5 5 1 1 6 7 6 5 5 1 2 2 4 4 3 6 6
6 5 5 4 3 3 1 1 2 3 4 4 5 5 5 6 7 7 9 12 15 19 22 26 26 22 15 2 3 8 10 15 16 15 14 15 15 13 12 13 12 14 15 11 9 9 8 9 9 9 9 5 4 3 3 6 5 4 8 8 8 8 4 6 6 5 5 3 4 7 5 5 3 1 2 6 7 4 5 4 2 1 3 4 4 4 6 5
5 5 4 3 2 2 2 2 2 3 4 4 5 5 6 6 7 8 9 10 11 13 14 15 17 22 20 9 7 9 10 15 17 16 15 17 19 18 15 13 13 17 20 19 15 14 19 21 16 10 6 3 4 7 6 6 7 7 10 9 7 7 4 5 6 4 3 2 3 7 5 4 4 0 5 7 5 2 3 4 4 3 5 4 3 3 5 3
6 5 6 7 8 9 10 10 9 9 8 7 6 5 6 6 7 9 9 8 7 9 12 14 13 11 10 9 10 8 12 17 16 15 16 19 22 21 19 17 15 18 22 19 13 11 13 11 12 9 3 3 5 7 4 3 7 7 8 8 5 7 3 2 3 4 3 3 5 6 4 5 3 4 7 7 5 3 2 4 5 4 5 4 2 2 3 2
8 10 13 15 15 14 14 14 12 12 11 9 7 6 6 7 7 8 8 6 5 7 9 11 13 11 6 5 9 12 15 17 15 14 16 18 21 23 24 23 20 20 23 21 18 17 13 14 21 14 4 6 4 4 5 3 6 4 4 6 4 6 1 6 1 2 3 3 6 4 3 5 6 8 8 7 5 2 1 5 5 5 4 4 2 2 1 2
12 15 16 15 13 12 13 12 12 11 11 11 8 6 6 8 10 9 7 5 3 4 4 2 3 8 8 5 8 16 16 16 17 16 15 15 18 23 26 26 26 25 26 26 25 25 25 29 28 12 3 5 4 6 7 5 4 4 3 3 3 3 2 7 2 4 3 2 4 4 1 6 7 9 9 7 4 2 3 6 5 5 4 4 2 1 2 3
15 15 13 10 9 10 11 11 11 11 12 13 10 7 6 9 10 9 10 10 6 3 3 3 3 4 6 3 7 17 19 18 19 19 15 13 15 19 21 23 26 28 29 28 28 29 29 29 20 7 5 6 5 7 5 3 4 4 3 3 3 3 2 7 3 4 3 2 3 5 2 6 7 9 10 7 4 4 5 7 5 5 5 4 3 2 3 3
12 11 8 5 7 10 9 8 10 12 16 18 17 12 6 6 7 9 11 13 14 11 6 5 5 7 6 2 8 16 17 16 17 19 15 11 10 11 14 18 21 23 24 23 25 26 25 21 10 5 6 6 6 6 4 4 4 3 3 1 2 2 0 4 3 0 1 1 0 2 3 4 5 8 9 7 5 5 5 6 6 5 5 4 4 3 3 3
8 6 2 3 7 7 7 5 5 9 14 18 23 23 17 9 5 6 5 5 8 12 14 10 3 5 6 4 7 9 9 12 16 20 17 14 9 5 6 10 11 14 15 16 19 15 13 10 3 3 6 4 3 4 4 5 3 4 3 2 2 2 2 2 3 2 2 2 2 2 4 7 7 7 7 8 6 6 6 6 6 4 5 4 4 4 3 2
5 4 5 6 6 5 6 6 4 5 6 8 14 21 27 25 17 12 7 3 1 3 10 15 8 5 5 7 6 7 9 11 15 20 17 16 16 11 9 7 5 7 7 9 13 9 6 5 3 4 4 5 4 5 5 2 1 1 0 2 0 1 2 2 3 3 3 3 2 2 4 10 10 7 7 8 7 7 7 6 5 4 4 4 4 4 2 2
4 5 5 5 4 4 5 7 6 3 7 8 6 6 12 19 24 25 22 14 6 3 3 8 6 5 1 6 9 10 8 11 15 20 19 12 13 17 18 13 6 6 5 4 6 6 4 4 5 5 4 6 4 2 5 6 4 3 3 4 3 1 2 4 4 4 1 2 4 4 5 9 9 8 7 9 7 7 7 5 4 4 4 4 4 3 2 2
3 4 4 2 2 3 4 6 8 5 3 7 9 5 2 3 10 12 14 14 9 7 7 2 1 6 1 4 11 11 8 16 18 21 24 13 4 10 14 11 6 7 6 2 3 5 4 6 6 3 3 7 7 4 5 4 4 5 4 4 2 1 3 4 4 5 0 2 5 5 5 8 9 9 9 9 7 7 7 6 5 5 3 4 5 4 2 3
3 3 3 2 1 3 3 5 8 7 6 6 7 4 2 3 6 1 2 7 8 10 9 1 5 9 3 3 13 12 3 14 22 23 28 16 3 6 8 7 7 7 5 2 2 4 5 8 4 3 6 6 6 4 4 4 5 4 4 4 1 1 3 4 3 4 1 1 4 3 5 10 10 9 8 6 7 8 9 7 6 5 4 4 4 5 4 3
3 4 3 3 3 5 4 1 5 5 8 12 11 9 6 7 11 8 4 6 6 9 5 2 9 9 4 6 16 13 2 10 17 20 26 18 7 6 3 5 10 5 5 4 3 5 7 7 5 6 4 3 3 1 5 7 6 5 4 4 1 2 3 4 4 4 3 1 4 4 5 10 11 9 8 7 9 9 8 8 6 5 4 4 5 4 4 4
4 5 3 3 4 5 4 2 2 3 5 11 16 15 12 12 11 9 5 7 2 5 3 5 9 7 8 10 16 14 8 7 6 12 22 15 6 5 2 5 9 5 6 7 4 5 6 3 7 4 1 1 3 6 7 6 5 5 5 3 2 4 2 3 4 5 3 0 3 4 5 8 8 7 7 7 7 4 3 5 5 4 5 5 5 4 4 5
4 5 4 4 4 5 4 3 3 3 5 11 15 14 13 12 9 6 3 5 2 2 2 3 5 5 5 7 14 10 5 4 2 8 19 11 3 3 3 4 6 5 5 6 8 8 4 4 5 5 4 3 5 8 8 6 5 3 3 3 2 5 3 4 4 5 5 2 2 4 5 5 4 5 7 4 2 2 1 3 3 4 5 5 3 3 5 6
4 5 3 3 4 6 6 4 4 6 8 10 13 13 13 11 6 4 4 4 4 3 2 2 3 6 4 9 14 5 3 4 2 6 13 10 4 2 3 2 4 4 1 3 8 7 2 3 2 3 4 5 6 6 5 4 4 4 2 4 4 4 4 6 5 4 4 4 3 3 4 4 5 5 7 4 2 4 2 3 6 6 5 5 3 3 5 5
4 3 1 2 4 7 7 3 5 9 8 7 11 12 10 7 5 4 4 5 5 3 5 5 3 8 8 10 12 3 4 5 2 8 13 11 4 2 3 3 2 3 3 4 4 3 2 5 4 3 2 3 6 5 3 3 6 3 2 4 4 3 2 4 3 3 3 3 4 3 4 3 6 6 7 4 3 6 4 4 7 7 6 5 4 5 5 5
4 2 0 1 4 7 6 3 7 8 4 5 10 10 6 5 5 3 3 6 5 2 5 5 3 8 7 8 9 3 3 5 4 9 13 11 7 2 5 4 3 3 1 3 3 1 2 7 7 4 3 4 6 4 2 4 6 2 1 6 6 3 3 3 2 3 0 2 4 3 4 2 5 6 6 4 3 6 7 6 7 7 8 6 6 7 6 6
6 2 2 2 3 5 4 5 9 6 3 8 11 8 5 5 4 2 6 5 3 2 2 3 3 6 6 8 11 6 1 4 2 6 10 12 9 2 5 4 3 3 3 6 3 2 1 4 6 5 5 5 4 1 1 5 3 3 2 5 4 4 4 3 3 2 0 2 4 5 1 0 5 6 5 3 2 6 8 8 8 9 9 7 7 8 7 7
9 4 3 4 4 4 5 6 6 5 7 10 9 7 6 4 2 4 6 4 2 2 1 2 4 6 7 8 9 5 3 3 2 5 9 10 10 6 5 1 5 4 5 7 5 3 1 2 3 1 4 3 3 4 4 6 1 2 3 4 3 2 2 2 4 2 3 4 2 6 1 1 5 6 5 3 2 6 7 7 8 9 9 7 8 8 7 6
13 8 5 4 4 5 6 6 7 8 9 10 8 7 5 3 4 6 6 1 1 2 1 2 3 4 7 8 6 6 6 3 2 6 6 5 9 8 3 1 4 6 5 7 4 2 3 3 2 1 2 1 4 4 4 5 2 2 5 5 5 4 3 2 2 3 4 3 5 6 2 2 3 6 4 2 3 5 5 5 7 8 8 8 9 8 7 5
16 14 8 5 3 3 4 6 8 9 9 9 8 4 3 4 5 7 3 0 1 2 3 3 3 4 7 5 4 6 5 5 6 6 6 5 8 8 5 3 4 5 5 6 4 4 6 5 1 2 3 1 2 2 0 0 1 4 4 4 3 3 4 4 4 5 4 3 6 5 2 4 1 6 5 5 7 6 5 6 8 9 8 8 8 7 6 5
18 17 13 9 6 4 5 6 9 10 9 8 5 3 5 5 6 3 0 3 1 2 2 1 3 4 5 3 3 5 4 5 5 5 4 3 5 5 4 2 0 3 5 3 4 5 3 2 3 4 3 2 4 3 4 5 5 5 4 5 4 3 4 3 4 3 1 4 3 1 1 1 4 8 8 9 10 8 8 9 9 9 9 8 8 7 5 4
19 18 16 14 11 9 9 8 8 9 7 5 3 5 7 6 3 1 3 2 0 2 0 1 3 3 3 4 4 5 3 3 4 4 2 2 5 3 3 2 2 2 2 1 3 5 3 5 6 4 3 2 5 4 2 4 5 5 2 3 3 2 3 3 3 2 3 5 3 0 0 2 4 7 8 9 9 9 9 9 8 9 9 9 8 6 4 5
19 20 19 19 16 12 10 7 6 6 4 3 4 6 9 6 1 1 2 3 1 3 1 0 4 4 3 3 2 3 2 1 3 4 4 4 5 3 4 5 4 3 2 2 2 2 2 4 4 2 1 2 4 3 3 2 2 3 2 5 3 3 3 1 2 1 3 5 5 3 1 3 4 5 7 7 7 7 6 6 6 7 8 8 8 6 4 5
16 20 21 21 19 16 10 6 4 3 3 4 7 7 7 3 3 2 2 4 1 2 2 1 3 4 4 3 3 2 1 1 3 5 5 4 3 1 3 4 5 3 3 2 1 0 1 4 5 3 1 2 2 1 4 5 1 2 2 4 2 3 3 1 2 4 1 3 5 3 2 5 5 7 6 4 6 6 5 6 6 8 9 6 7 7 5 6
12 16 20 22 21 18 12 5 3 2 3 6 9 6 3 3 3 3 3 1 1 1 2 3 3 4 3 4 4 4 2 2 3 4 3 2 2 1 1 2 3 2 3 3 0 1 1 4 5 4 2 2 3 3 2 3 0 2 2 1 2 3 5 3 1 2 4 2 4 2 3 5 4 6 7 5 5 7 7 7 6 8 9 6 7 8 5 6
6 10 14 21 23 19 14 6 3 3 4 8 8 3 2 2 2 2 2 1 0 2 3 1 1 2 1 3 4 5 4 2 2 3 2 1 1 1 0 2 1 1 2 3 1 0 1 4 6 1 0 2 1 3 1 0 2 2 1 2 1 2 4 4 1 4 5 1 4 3 4 6 4 4 6 7 6 8 7 7 7 8 8 7 8 7 6 7
2 3 8 20 25 19 15 8 3 4 6 8 6 3 2 1 1 1 2 2 1 2 5 2 0 1 1 0 3 5 4 3 3 3 1 1 1 2 1 1 0 2 1 2 2 1 2 2 7 1 2 4 3 2 3 3 1 2 1 2 2 2 1 1 1 1 2 2 5 5 5 4 2 4 6 8 7 8 8 7 7 8 8 7 8 7 6 6
1 1 4 17 25 18 12 8 3 6 8 7 3 2 1 1 0 1 2 2 2 2 3 2 1 2 1 2 1 3 3 2 1 2 2 0 1 2 2 1 0 2 2 3 3 1 1 1 5 4 1 3 3 2 1 3 2 3 2 1 1 2 3 1 0 2 1 1 3 4 5 4 5 6 5 9 9 7 7 7 7 8 8 7 7 6 5 6
2 3 1 16 25 13 7 9 9 8 7 4 3 2 1 1 1 2 1 0 1 1 1 2 2 2 1 2 1 1 1 1 1 1 1 1 0 1 1 1 1 2 3 3 3 0 1 2 4 5 4 2 2 1 4 4 2 1 1 1 2 1 1 0 0 2 3 2 2 2 5 7 7 5 6 10 10 7 7 7 7 8 8 7 7 6 5 6
3 4 2 19 23 8 3 11 11 6 4 4 2 2 2 1 1 1 1 1 0 1 1 3 3 2 2 1 1 2 1 1 1 0 1 1 0 0 1 1 2 0 2 3 3 0 0 2 3 4 5 2 4 4 4 5 5 4 3 3 3 1 1 1 2 2 1 3 4 2 4 10 8 4 6 9 7 6 7 7 7 8 8 7 7 6 6 6
6 4 5 20 18 4 8 9 4 3 4 2 2 2 1 2 2 0 1 1 1 0 1 2 2 2 3 2 1 3 1 1 1 1 1 2 2 1 0 2 3 2 2 2 0 1 1 3 0 4 5 5 6 4 1 3 3 3 2 2 3 3 4 4 2 3 1 1 2 3 2 9 7 4 6 7 6 6 6 6 6 8 8 7 7 6 6 6
4 2 6 20 13 3 10 8 2 5 4 0 1 1 1 2 2 1 0 0 0 0 1 1 1 1 1 2 1 2 2 2 2 1 2 3 2 1 0 2 2 2 3 1 1 0 0 2 1 5 5 4 6 4 1 1 1 1 2 2 4 3 3 5 5 3 1 2 2 3 3 9 7 3 5 5 5 5 6 6 7 7 7 7 6 6 6 5
2 3 5 20 14 2 5 5 2 3 2 0 2 2 2 1 2 1 0 1 0 1 1 1 1 0 1 2 2 2 2 1 1 1 1 2 2 1 2 1 0 1 1 1 1 0 1 0 1 3 6 7 7 6 5 4 1 2 3 1 3 4 6 4 2 3 1 4 5 4 5 9 6 1 3 4 6 6 7 7 6 6 7 6 5 5 5 5
4 1 3 16 21 12 5 3 6 5 2 2 4 2 2 2 1 1 1 1 1 2 2 0 1 1 2 2 2 1 1 0 1 1 1 1 2 1 1 1 1 2 1 1 1 0 1 2 2 2 2 3 5 5 5 4 2 2 1 2 2 5 7 4 2 3 2 4 5 5 6 10 11 7 5 7 7 8 9 8 6 5 6 6 5 5 5 5
3 3 3 9 14 12 4 1 5 6 4 3 3 2 2 2 1 1 1 0 0 1 1 1 0 2 2 2 1 1 2 1 1 1 0 2 3 1 1 0 2 1 1 1 1 2 2 2 3 5 6 5 6 8 5 1 3 5 4 3 4 4 5 5 4 3 5 3 3 8 10 12 17 17 14 13 11 10 11 10 8 6 5 5 5 5 5 5
3 3 2 3 5 5 5 4 5 4 3 4 3 0 1 0 2 1 1 1 0 1 0 0 1 1 1 1 1 1 2 1 1 0 1 3 3 3 1 2 2 2 1 1 1 3 3 3 4 6 8 9 9 10 7 1 4 9 8 6 6 5 6 7 6 7 5 3 5 9 8 7 15 18 16 16 14 12 12 11 9 7 6 5 4 4 4 4
4 2 1 1 1 2 3 4 4 5 4 3 3 1 1 0 1 1 1 1 1 1 0 1 1 2 4 3 2 1 2 2 1 2 1 2 2 3 2 1 1 2 2 1 1 3 4 3 4 4 7 11 10 12 9 4 6 8 7 8 8 6 9 12 12 9 7 5 11 10 5 8 15 18 19 17 13 12 12 11 9 7 6 5 4 4 5 5
4 3 1 2 2 3 1 2 2 5 5 3 3 1 2 3 2 3 2 1 2 2 1 1 4 3 4 3 3 1 2 1 2 4 2 1 2 1 1 1 1 1 0 1 2 1 4 3 4 3 6 11 10 10 8 5 4 7 8 10 10 9 12 13 12 9 9 12 16 16 15 17 17 17 19 18 12 10 10 8 7 7 6 5 5 6 6 6
3 3 1 3 4 1 1 1 3 4 4 3 2 1 3 5 4 3 2 2 1 2 1 2 4 2 3 3 4 2 5 5 3 5 4 2 3 2 2 2 2 1 1 1 1 1 1 3 2 3 3 9 8 6 4 5 5 8 12 9 7 7 8 9 8 6 7 11 16 14 13 16 15 13 14 13 9 7 8 8 8 7 6 6 6 6 6 6
3 2 2 5 3 3 2 2 3 4 3 3 2 1 1 3 4 2 1 2 2 3 4 4 3 2 2 2 3 6 7 7 7 6 6 4 3 3 3 2 4 3 1 1 0 1 1 2 2 5 3 7 4 5 9 8 4 6 12 11 6 6 6 6 6 6 8 8 9 8 7 11 11 6 6 9 7 6 9 10 8 7 6 6 6 7 7 6
4 1 1 5 3 3 2 2 3 3 2 1 0 1 2 3 3 1 1 1 1 2 4 5 5 3 1 2 5 7 5 4 4 3 3 3 2 1 1 1 5 5 3 3 1 1 3 1 2 3 2 6 5 5 9 9 6 4 8 6 7 7 6 5 5 7 10 7 4 6 8 10 8 6 9 12 10 8 8 8 7 7 6 6 6 7 7 6
Wind_Direction
85 82 79 81 83 89 97 102 107 110 111 107 98 84 66 56 43 34 29 20 14 8 1 354 347 340 324 305 301 305 336 30 26 26 34 13 0 1 350 346 344 350 353 4 31 59 48 41 52 66 75 53 12 342 14 21 35 57 68 79 109 163 173 175 173 184 146 141 170 188 174 123 131 190 136 42 26 37 358 345 323 320 299 270 290 311 326 334
88 89 87 88 90 93 99 104 110 111 108 103 89 83 67 53 39 32 26 15 11 5 2 1 4 359 341 314 287 284 282 25 25 26 21 6 4 360 343 337 331 344 357 31 44 48 53 23 37 63 56 32 7 358 17 11 36 72 101 83 129 195 188 163 158 168 139 143 155 148 155 124 139 175 94 72 2 16 29 326 330 333 303 300 312 322 320 329
91 92 93 93 97 99 104 108 110 107 99 96 88 79 60 47 36 26 16 10 7 5 8 17 30 27 10 339 285 263 228 44 27 13 5 3 4 1 348 327 315 350 31 51 42 42 66 60 61 71 58 42 20 13 33 13 30 69 100 81 191 187 100 88 137 145 134 137 131 131 141 77 126 191 98 122 115 28 44 268 316 307 280 292 309 319 321 331
94 95 98 98 103 105 109 110 104 105 100 99 86 70 55 36 28 16 9 7 4 3 2 11 28 28 20 3 306 198 187 84 22 348 358 2 2 4 352 316 319 28 50 46 32 53 94 88 68 69 69 50 354 18 38 354 47 61 71 114 178 150 85 62 120 114 105 119 123 135 109 77 332 29 119 140 84 355 275 237 220 245 261 271 295 307 326 343
95 96 99 100 108 109 111 113 111 115 106 99 77 57 41 23 14 4 5 4 1 1 355 1 357 13 27 19 31 175 138 73 347 346 0 0 2 6 5 4 21 42 38 36 47 95 106 76 59 55 63 51 349 27 27 337 79 73 26 110 140 116 102 105 109 106 110 107 107 116 114 118 296 31 122 140 118 221 251 235 213 226 247 255 271 288 337 7
97 98 103 106 111 111 115 116 115 113 98 81 61 37 19 8 359 1 8 6 3 2 353 347 332 351 42 38 63 111 96 85 320 346 359 358 4 9 27 32 36 36 32 69 95 102 87 49 54 54 59 56 21 46 14 329 60 95 36 44 61 85 113 129 106 110 117 106 108 124 132 131 82 78 171 148 169 220 237 244 238 248 253 254 256 279 354 27
104 103 106 108 108 111 113 111 106 94 79 53 28 1 356 352 358 12 12 14 14 12 10 352 335 162 97 55 61 70 85 68 332 352 358 359 9 18 48 43 35 31 53 100 103 100 81 67 76 83 78 75 50 63 70 36 54 91 96 54 60 80 102 118 113 115 109 106 128 127 113 123 140 146 157 200 240 248 265 279 268 255 247 246 259 324 21 52
106 107 107 107 108 107 102 97 86 68 41 355 345 340 350 358 14 22 28 40 46 51 50 48 53 126 145 79 60 62 63 350 343 359 1 5 21 32 63 52 47 76 90 100 108 107 89 81 102 121 76 69 87 97 86 66 48 70 108 111 85 80 94 105 103 103 99 103 120 102 105 183 194 139 129 248 260 262 289 318 250 197 220 275 310 3 47 65
109 112 111 109 107 100 96 83 52 358 323 324 335 343 4 17 28 39 61 75 74 72 65 59 58 74 113 144 117 71 14 342 346 0 9 17 33 48 72 62 68 97 92 91 105 102 91 88 127 128 112 108 87 85 87 77 53 79 111 114 101 99 103 103 101 108 113 123 121 101 114 222 239 79 207 254 259 269 322 356 173 135 321 301 337 31 72 72
109 109 104 101 99 83 66 345 315 311 326 339 354 12 27 30 47 69 90 96 86 78 68 61 59 62 70 65 94 68 351 350 7 11 24 34 49 62 68 69 81 96 87 72 67 75 101 119 116 108 107 109 77 33 12 94 125 128 104 100 103 109 107 105 115 129 124 134 136 127 166 237 285 1 263 264 258 284 359 340 310 22 291 297 1 59 85 70
97 96 92 80 71 55 35 31 24 20 21 24 27 33 38 48 72 89 106 108 95 80 66 58 55 58 62 53 71 65 357 10 27 28 43 53 57 61 63 71 84 92 86 71 62 82 107 116 118 109 92 85 85 55 39 95 115 111 107 92 72 79 69 91 120 148 123 118 164 133 155 270 339 118 228 251 265 1 27 289 294 310 293 316 357 67 85 51
89 88 90 90 89 85 77 73 68 66 62 53 50 50 56 72 91 102 108 111 110 95 74 62 54 47 48 48 63 53 17 25 33 39 52 59 62 65 70 75 79 93 98 82 63 82 111 126 107 88 81 118 100 75 67 103 97 96 100 92 57 48 62 177 141 172 157 151 185 124 71 307 303 238 238 247 268 22 66 262 280 291 313 334 327 58 76 18
98 104 107 104 95 83 70 62 59 60 61 58 58 56 67 85 101 117 123 122 131 119 96 76 62 50 42 57 50 32 26 30 38 49 53 59 67 72 76 79 81 89 97 89 76 79 93 104 96 90 88 99 98 111 119 88 75 77 58 86 85 39 352 237 238 175 170 164 182 130 19 284 261 250 255 257 256 5 341 268 275 285 318 329 322 39 346 4
116 119 115 105 87 66 51 48 52 57 65 68 64 65 83 100 102 112 120 127 163 153 119 83 56 44 42 76 45 24 27 40 45 42 43 55 70 78 78 79 83 88 91 88 82 83 89 91 90 92 68 76 105 110 95 53 46 79 45 37 80 80 267 270 271 154 160 195 154 106 304 260 263 256 254 258 236 179 254 262 269 283 307 318 323 345 296 349
129 128 118 98 64 40 36 48 60 64 72 74 73 78 98 109 103 98 93 90 91 135 145 77 93 71 46 77 27 21 34 43 37 33 39 56 72 82 81 80 84 86 87 84 81 82 84 83 79 75 56 38 68 87 71 29 22 57 77 339 358 105 254 297 292 152 165 240 113 99 255 267 265 249 244 253 227 178 226 253 263 281 300 308 309 305 284 313
139 135 121 82 28 19 26 52 73 75 74 74 74 76 97 127 115 101 97 90 73 72 88 68 81 90 73 23 355 17 33 26 21 35 48 60 81 95 86 87 91 85 80 76 80 80 72 72 69 69 74 35 46 78 57 39 6 359 86 179 309 90 145 301 302 186 161 205 110 158 224 276 270 249 243 245 231 196 213 245 259 279 293 290 288 281 271 310
153 154 153 349 352 1 15 42 94 99 84 79 76 71 72 83 129 142 126 115 73 61 57 36 32 105 64 11 355 2 0 358 20 42 52 56 72 120 93 95 102 84 76 61 62 64 46 49 59 57 66 48 50 79 62 38 341 328 41 102 229 160 158 281 275 301 36 84 249 219 227 254 265 264 248 241 230 207 214 237 249 265 286 290 281 271 275 341
196 239 281 312 336 358 30 50 97 151 144 109 87 75 71 70 80 89 80 124 165 40 43 24 28 99 31 352 344 323 326 353 27 42 52 59 65 81 70 72 99 73 62 38 35 31 18 28 58 68 38 17 20 52 81 132 219 284 304 100 118 213 188 250 243 263 28 41 261 237 251 258 270 275 249 244 230 214 226 224 224 247 279 293 277 270 296 2
253 274 287 311 351 30 57 56 58 142 196 194 170 119 77 67 70 68 59 67 65 50 62 359 19 109 338 316 325 325 352 25 34 33 32 38 59 69 56 46 59 61 50 21 12 13 31 37 42 57 6 336 328 55 135 176 163 163 190 135 138 254 253 245 254 262 60 34 280 237 249 266 279 275 245 245 234 221 235 216 214 254 285 293 283 287 317 330
287 287 287 314 21 79 73 49 38 54 162 194 195 178 130 58 58 46 38 56 68 84 98 325 24 91 25 299 340 350 22 40 40 26 16 8 22 53 37 21 34 57 54 26 350 2 55 73 50 42 269 279 281 247 186 172 139 134 111 95 140 218 289 272 277 280 222 58 273 242 260 274 273 265 245 240 234 232 236 215 221 251 278 282 290 303 291 281
312 301 279 281 179 152 113 54 36 44 74 124 163 137 146 153 89 112 335 59 60 69 86 98 87 77 41 330 5 4 9 34 32 18 13 13 17 37 10 1 44 46 8 338 16 0 53 71 32 282 241 260 289 261 179 111 92 108 102 83 58 245 266 272 266 284 338 76 272 293 310 282 273 268 254 234 225 232 226 209 216 232 255 273 284 292 267 265
322 311 277 255 200 185 186 98 47 61 82 95 110 107 124 134 121 142 141 86 41 37 74 77 63 57 22 25 13 13 64 29 22 9 9 15 33 48 5 25 63 53 347 11 33 8 45 52 322 283 241 245 320 1 103 94 83 72 76 85 29 293 288 294 291 311 13 96 274 323 327 286 282 281 264 230 214 226 219 199 191 193 221 267 272 271 251 261
324 317 290 256 216 201 201 178 109 101 111 116 114 112 123 127 135 151 109 92 64 1 20 45 52 28 12 25 8 16 58 40 13 354 359 7 33 67 83 51 60 59 24 40 56 52 62 2 317 339 85 148 27 29 59 72 63 62 66 77 290 294 342 297 290 323 339 60 270 302 310 287 294 307 283 240 215 241 239 189 183 182 200 239 245 221 216 241
323 320 302 258 215 199 190 170 170 136 131 137 124 122 140 142 148 159 103 83 80 355 26 65 73 49 28 9 353 7 63 50 69 350 354 10 53 53 80 90 69 52 40 56 69 80 98 274 321 31 41 70 62 34 46 62 33 20 94 110 273 287 281 243 272 322 332 355 313 316 327 295 309 325 294 281 232 263 258 181 226 249 232 248 261 216 219 234
321 319 306 250 208 193 176 142 147 139 128 130 128 135 146 150 165 157 105 62 28 334 1 44 48 31 10 354 353 2 86 35 61 343 350 17 35 24 51 103 88 55 91 91 70 81 81 322 8 42 15 37 75 55 39 75 53 343 253 188 231 245 241 267 306 358 19 359 309 359 9 300 311 306 272 287 284 249 243 203 240 263 267 276 298 265 243 243
333 315 296 229 198 183 175 140 134 139 128 124 135 145 153 164 182 161 112 65 33 333 355 7 7 8 355 348 345 356 59 4 333 3 6 13 4 131 62 347 54 69 179 146 77 99 25 6 33 84 93 45 67 66 15 94 88 5 285 178 168 148 194 275 327 55 54 311 282 64 88 270 312 305 268 281 273 261 285 268 255 267 272 272 270 256 244 239
2 336 157 179 182 180 190 176 157 151 134 155 153 150 157 162 157 136 83 50 23 337 358 344 339 7 355 342 348 61 68 310 312 19 16 10 347 135 75 15 34 26 236 112 58 28 352 356 9 37 89 61 50 41 321 111 95 351 301 123 129 139 195 224 91 79 177 273 320 24 106 226 294 285 281 310 298 291 296 282 277 273 266 265 259 253 241 230
24 35 117 117 158 182 190 160 159 162 142 159 162 157 160 159 158 101 78 68 355 341 16 316 334 3 343 351 15 74 132 309 32 0 354 19 10 56 72 50 96 28 5 96 103 273 348 346 340 360 29 38 38 333 208 116 88 271 202 117 138 172 183 170 104 73 355 51 346 322 36 316 273 275 314 355 301 295 286 265 266 266 264 264 255 255 246 230
40 55 107 106 112 133 146 144 145 139 139 152 153 150 154 148 131 61 70 98 331 349 178 316 345 345 343 1 14 37 12 10 89 319 339 26 21 40 74 42 113 83 24 83 131 228 238 269 267 24 32 9 273 261 163 131 338 270 134 73 46 84 108 102 95 82 31 42 301 273 317 28 277 283 321 358 288 271 269 261 255 256 265 263 252 257 251 230
50 61 90 109 114 111 114 119 121 128 138 145 142 142 143 105 75 57 47 91 344 332 300 12 358 340 9 18 354 2 22 5 327 342 2 24 6 27 78 288 90 87 17 38 87 241 304 313 223 135 30 256 262 275 165 161 211 111 86 49 32 19 21 47 58 76 59 5 265 243 196 100 305 286 271 270 253 226 232 269 269 267 274 263 251 254 249 224
53 58 72 90 118 133 127 115 120 133 136 136 138 130 97 49 62 84 70 296 263 332 0 15 343 6 32 41 352 349 11 346 337 13 22 7 5 17 31 15 42 57 16 9 13 327 336 352 291 262 285 316 14 346 82 235 192 111 80 68 70 339 353 21 353 36 69 299 263 234 179 113 216 273 264 262 261 224 204 241 260 268 270 262 253 252 247 212
52 52 58 67 83 102 122 131 130 129 126 130 127 78 75 45 33 93 304 325 325 323 10 325 305 9 21 32 9 337 339 345 355 48 46 23 39 28 28 48 69 29 13 335 338 343 330 303 302 304 297 24 53 28 344 350 13 40 37 59 68 348 2 10 328 12 58 262 248 187 25 117 221 254 264 270 271 243 217 224 240 253 259 259 255 252 246 195
54 53 54 59 69 80 95 118 133 131 129 129 97 54 78 74 40 218 281 332 48 309 3 231 305 352 20 25 5 330 349 352 349 38 69 87 69 30 2 46 119 81 20 309 359 357 326 306 329 348 321 19 77 78 349 336 357 9 39 87 85 79 38 339 297 341 303 271 268 151 58 278 282 272 244 246 257 238 223 229 237 245 252 256 256 258 245 195
59 57 56 56 58 63 76 93 118 139 144 112 78 51 65 78 148 215 283 262 228 338 8 203 326 355 42 47 345 324 30 6 344 24 22 39 52 9 340 359 24 69 86 76 55 35 19 314 320 14 330 11 69 108 142 141 338 313 169 126 112 136 119 282 243 259 287 289 294 303 227 227 278 277 232 233 263 255 243 252 255 257 256 255 266 276 246 208
62 56 50 45 43 41 50 72 92 133 150 83 67 60 75 124 220 183 226 249 252 335 315 331 38 35 7 342 332 348 63 311 3 40 24 35 75 26 354 334 342 42 91 75 340 4 76 261 271 296 298 77 82 171 130 107 51 284 148 88 58 175 143 132 202 203 245 320 299 282 250 229 243 271 274 301 307 290 282 284 284 273 265 260 269 269 239 213
67 54 43 34 26 21 23 42 72 117 141 84 65 60 108 181 199 171 189 226 124 190 306 340 51 60 349 320 339 2 13 331 12 48 28 35 141 172 8 275 304 36 98 106 156 353 16 276 285 329 339 82 131 182 122 100 94 356 59 71 245 167 123 103 288 331 54 31 288 292 287 289 311 301 309 356 325 295 298 298 289 273 271 273 265 258 236 218
76 58 44 27 15 8 9 23 93 110 98 80 77 97 185 185 154 167 179 102 124 122 89 49 4 48 339 319 328 331 346 341 7 50 39 4 119 157 278 260 250 119 140 135 150 159 124 282 294 323 162 320 141 140 39 175 156 68 60 215 207 90 85 95 48 350 37 57 280 310 289 295 338 312 315 348 315 289 293 297 297 286 278 270 258 255 235 214
136 87 52 19 7 0 3 17 89 97 74 70 78 122 168 135 109 164 151 118 135 74 84 127 175 49 179 16 323 308 341 2 358 34 65 336 48 148 162 256 200 81 104 114 86 75 120 294 299 269 168 317 355 70 345 310 121 89 159 193 97 70 349 28 59 348 12 314 288 302 293 276 228 238 296 318 298 289 294 299 304 292 277 266 262 261 240 212
126 88 43 3 358 357 358 5 64 69 64 77 94 129 135 128 4 216 177 124 120 98 83 170 150 55 157 158 269 295 349 35 1 33 99 20 353 147 142 198 165 41 33 95 113 223 98 95 288 292 272 313 356 58 255 283 331 30 54 350 11 135 166 195 133 164 176 277 283 313 324 293 231 218 253 281 279 279 287 296 295 282 274 267 261 257 232 209
54 65 23 348 352 355 9 37 54 52 60 98 157 150 88 152 254 286 242 133 138 137 98 175 140 76 185 198 198 257 358 77 150 65 124 207 282 155 101 158 186 354 3 57 93 221 55 113 253 300 332 319 309 238 202 193 186 80 50 306 303 320 139 208 207 148 138 160 201 304 312 282 255 218 221 258 267 254 260 278 283 279 281 271 255 247 225 207
48 67 328 341 347 339 51 51 48 48 78 90 106 107 58 124 158 322 317 11 40 210 169 156 145 126 163 179 196 203 302 15 162 169 258 240 152 233 344 114 153 301 10 62 66 320 127 148 230 295 329 294 249 246 209 183 173 161 180 205 191 189 112 49 302 295 106 154 179 167 287 276 266 212 214 245 248 236 246 262 277 287 292 282 260 241 218 202
55 79 312 339 349 33 74 53 27 43 89 80 49 105 72 88 121 77 327 30 31 227 66 107 128 126 150 165 182 177 165 350 223 198 228 225 195 200 307 93 122 117 101 107 352 253 158 108 177 275 274 255 263 276 182 187 188 159 171 171 139 133 123 130 224 265 294 232 179 123 256 269 258 202 210 229 220 230 255 269 284 295 295 285 266 243 216 202
65 138 328 349 352 97 72 55 345 23 61 193 334 57 36 72 122 125 25 354 307 185 36 44 169 109 159 189 148 155 179 200 201 203 221 234 238 223 74 84 113 116 100 120 222 259 92 86 28 290 289 297 304 313 348 26 91 167 248 152 140 153 139 151 178 188 220 244 165 116 251 268 270 234 218 235 242 261 282 284 281 289 293 284 264 238 211 197
89 189 342 7 14 110 87 83 128 45 40 296 39 33 349 65 120 91 240 259 261 155 111 129 207 134 153 154 109 150 192 184 217 239 198 211 232 5 30 32 66 141 136 157 141 140 280 134 73 335 336 341 341 347 344 339 347 221 244 199 153 123 104 119 144 102 265 232 166 151 242 262 276 242 189 248 275 282 283 277 266 270 280 277 260 236 210 187
62 143 303 12 35 63 92 144 139 123 143 86 64 37 8 37 82 135 182 221 220 175 147 26 213 115 114 107 75 102 204 22 265 308 24 237 253 358 19 334 20 141 193 320 19 140 224 197 136 96 17 330 315 313 315 306 273 238 213 193 191 139 131 154 133 98 245 236 162 171 240 273 290 295 280 278 283 288 292 292 281 267 265 265 256 233 210 188
70 53 314 350 27 54 74 106 96 107 142 118 78 15 49 63 305 277 146 175 268 166 120 348 118 80 75 91 68 326 283 326 19 10 325 246 269 295 230 317 69 131 223 313 14 84 100 218 203 175 185 208 232 248 261 329 299 278 265 241 220 181 146 125 113 165 203 189 204 228 238 272 290 293 297 302 304 307 309 309 307 295 277 269 257 236 217 198
90 64 5 324 351 28 40 19 44 78 135 130 107 335 125 84 317 336 131 239 325 85 22 35 119 138 167 141 115 253 265 326 32 336 224 232 265 287 228 141 90 25 336 273 222 105 86 282 245 196 220 234 236 254 270 319 267 261 263 258 230 196 157 152 188 212 169 115 270 246 213 245 279 287 295 299 304 309 307 302 304 300 283 271 258 240 217 195
75 115 212 134 18 26 32 13 45 70 65 89 108 101 125 72 309 233 209 309 1 2 304 356 306 231 200 171 124 166 301 345 330 248 236 246 277 330 347 150 124 347 342 334 296 118 121 261 239 186 250 258 249 263 271 255 253 255 249 250 244 201 178 196 219 209 163 194 252 254 238 259 276 285 288 290 293 296 293 292 297 296 283 269 254 239 218 200
74 107 269 28 89 166 185 343 73 80 57 67 92 103 148 156 224 230 199 57 352 330 80 269 284 257 204 177 115 140 248 315 311 271 220 205 259 310 325 244 185 300 309 61 335 130 145 247 232 175 287 281 263 265 258 222 253 279 254 236 231 213 201 213 229 215 199 232 253 265 277 277 273 273 276 282 285 282 282 288 291 289 279 262 247 242 231 214
88 136 178 54 62 129 188 356 68 73 35 37 72 98 167 172 209 236 183 134 251 294 132 220 265 242 173 164 134 199 226 185 207 250 191 169 281 228 212 224 159 76 16 88 331 330 166 265 230 117 316 292 289 310 291 213 222 271 280 263 228 223 226 227 234 225 221 245 258 266 277 278 271 262 263 272 280 284 288 289 283 276 267 254 248 249 242 226
75 165 148 100 55 355 5 22 64 80 29 6 41 18 256 207 214 219 207 177 186 208 187 185 205 154 112 147 200 243 241 191 194 223 180 173 253 214 212 234 143 129 33 152 152 58 153 279 356 57 344 281 290 349 322 295 259 263 283 280 229 206 222 219 214 200 195 224 261 274 269 267 269 270 270 273 275 279 282 282 280 272 254 237 242 252 245 224
52 343 31 97 85 354 21 19 25 72 60 333 217 227 283 277 281 254 229 315 50 195 204 180 164 146 118 243 239 248 247 187 192 233 182 180 247 212 213 178 130 135 160 168 161 114 142 146 1 38 312 273 283 325 314 318 345 315 270 240 192 201 231 246 244 219 200 200 248 259 253 264 284 312 307 297 295 290 279 273 271 270 259 240 239 248 241 219